SCP
0 0 0 0 0 0 0 0 0 0 0 0 0 0 0 0 0 0 0 0 0 -0 0 0 0 0 0 0 0 0 0 -0 -0 -0 -0 -0 -0 0 0 0 0 0 0
0 0 0 0 0 0 0 0 0 0 0 0 0 0 0 0 0 0 0 0 0 -0 0 0 0 0 0 0 0 0 0 0 -0 -0 -0 -0 -0 -0 0 0 0 0 0
0 0 0 0 0 0 0 0 0 0 0 0 0 0 0 0 0 0 0 0 0 0 0 0 0 0 0 0 0 0 0 0 0 -0 -0 -0 -0 -0 -0 0 0 0 0
0 0 0 0 0 0 0 0 0 0 0 0 0 0 0 0 0 0 0 0 0 0 0 0 0 0 0 0 0 0 0 0 0 0 0 -0 -0 -0 -0 -0 0 0 0
0 0 0 0 0 0 0 0 0 0 0 0 0 0 0 0 0 0 0 0 0 0 0 0 0 0 0 0 0 0 0 0 0 0 0 0 0 0 -0 0 0 0 0
0 0 0 0 0 0 0 0 0 0 0 0 0 0 0 0 0 0 0 0 0 0 0 0 0 0 0 0 0 0 0 0 0 0 0 0 0 0 0 0 0 0 0
0 0 0 0 0 0 0 0 0 0 0 0 0 0 0 0 0 0 0 0 0 0 0 0 0 0 0 0 0 0 0 0 0 0 0 0 0 0 0 0 0 0 0
0 0 0 0 0 0 0 0 0 0 0 0 0 0 0 0 0 0 0 0 0 0 0 0 0 0 0 0 0 0 0 0 0 0 0 0 0 0 0 0 0 0 0
0 0 0 0 0 0 0 0 0 0 0 0 0 0 0 0 0 0 0 0 0 0 0 0 0 0 0 0 0 0 0 0 0 0 0 0 0 0 0 0 0 0 0
0 0 0 0 0 0 0 0 0 0 0 0 0 0 0 0 0 0 0 0 0 0 0 0 0 0 0 0 0 0 0 0 0 0 0 0 0 0 0 0 0 0 0
0 0 0 0 0 0 0 0 0 0 0 0 0 0 0 0 0 0 0 0 0 0 0 0 0 0 0 0 0 0 0 0 0 0 0 0 0 0 0 0 0 0 0
0 0 0 0 0 0 0 0 0 0 0 0 0 0 0 0 0 0 0 0 0 0 0 0 0 0 0 0 0 0 0 0 0 0 0 0 0 0 0 0 0 0 0
0 0 0 0 0 0 0 0 0 0 0 0 0 0 0 0 0 0 0 0 0 0 0 0 0 0 0 0 0 0 0 0 0 0 0 0 0 0 0 0 0 0 0
0 0 0 0 0 0 0 0 0 0 0 0 0 0 0 0 0 0 0 0 0 0 0 0 0 0 0 0 0 0 0 0 0 0 0 0 0 0 0 0 0 0 0
0 0 0 0 0 0 0 0 0 0 0 0 0 0 0 0 0 0 0 0 0 0 0 0 0 0 0 0 0 0 0 0 0 0 0 0 0 0 0 0 0 0 0
0 0 0 0 0 0 0 0 0 0 0 0 0 0 0 0 0 0 0 0 0 0 0 0 0 0 0 0 0 0 0 0 0 0 0 0 0 0 0 0 0 0 0
0 0 0 0 0 0 0 0 0 0 0 0 0 0 0 0 0 0 0 0 0 0 0 0 0 0 0 0 0 0 0 0 0 0 0 0 0 0 0 0 0 0 0
0 0 0 0 0 0 0 0 0 0 0 0 0 0 0 0 0 0 0 0 0 0 0 0 0 0 0 0 0 0 0 0 0 0 0 0 0 0 0 0 0 0 0
0 0 0 0 0 0 0 0 0 0 0 0 0 0 0 0 0 0 0 0 0 0 0 0 0 0 0 0 0 0 0 0 0 0 0 0 0 0 0 0 0 0 0
0 0 0 0 0 0 0 0 0 0 0 0 0 0 0 0 0 0 0 0 0 0 0 0 0 0 0 0 0 0 0 0 0 0 0 0 0 0 0 0 0 0 0
0 0 0 0 0 0 0 0 0 0 0 0 0 0 0 0 0 0 0 0 0 0 0 0 0 0 0 0 0 0 0 0 0 0 0 0 -0 -0 -0 -0 0 0 0
0 0 0 0 0 0 0 0 0 0 0 0 0 0 0 0 0 0 0 0 0 0 0 0 -0 0 0 0 0 0 0 0 0 0 0 0 0 -0 -0 0 0 0 0
0 0 0 0 0 0 0 0 0 0 0 0 0 0 0 0 0 0 0 0 0 0 0 0 0 0 0 0 0 0 0 0 0 0 0 0 0 0 0 0 0 0 0
0 0 0 0 0 0 0 0 0 0 0 0 0 0 0 0 0 0 0 0 0 0 0 0 0 0 0 0 0 0 0 0 0 0 0 0 0 0 0 0 0 0 0
0 0 0 0 0 0 0 0 0 0 0 0 0 0 0 0 0 0 0 0 0 0 0 0 0 0 0 0 0 -0 -0 -0 -0 0 0 0 0 0 0 0 0 0 0
0 0 0 0 0 0 0 0 0 0 0 0 0 0 0 0 0 0 0 0 0 0 0 0 0 0 0 0 0 0 -0 0 0 0 0 0 0 0 0 0 0 0 0
Wind_Speed
6 7 8 9 9 9 11 11 12 12 10 9 10 10 10 9 8 7 11 11 11 12 10 9 11 12 11 12 13 12 13 11 10 10 11 11 12 14 11 11 10 9 7
7 8 8 8 8 8 10 11 11 12 11 9 9 8 10 9 8 8 9 10 11 12 12 10 9 11 10 12 13 13 10 10 10 10 10 8 8 6 8 8 9 10 7
8 8 8 8 7 8 10 11 10 11 11 11 8 9 8 7 7 9 7 9 11 11 10 10 9 10 9 9 12 12 12 11 9 7 6 6 7 12 11 11 9 6 5
6 7 8 8 7 7 7 9 9 9 9 9 9 11 10 10 11 9 9 10 11 11 10 10 10 10 9 10 11 12 11 12 10 7 6 7 8 7 9 12 10 12 11
7 8 8 7 7 7 7 7 8 8 8 9 9 9 9 8 8 9 10 10 9 10 11 11 10 10 9 10 12 13 12 10 10 9 8 8 8 10 9 13 15 11 9
7 7 7 7 6 7 6 7 8 9 9 9 9 9 10 10 11 11 10 10 9 8 10 13 10 11 9 11 12 12 13 11 12 10 8 8 8 8 8 10 14 14 12
7 7 7 7 7 7 7 8 9 9 9 9 9 9 9 9 10 11 10 11 10 9 10 13 11 10 10 12 12 13 13 13 13 11 8 8 9 10 10 11 12 15 13
6 7 7 7 7 7 8 8 9 9 9 9 9 9 9 7 7 9 10 9 9 9 10 12 12 12 13 14 12 12 13 12 13 13 11 9 9 10 11 11 11 12 12
6 6 6 6 6 7 7 8 9 10 10 10 10 9 9 8 9 9 9 7 9 11 12 12 13 13 14 14 13 11 14 13 13 12 11 10 10 10 11 12 11 11 12
6 6 6 6 6 6 6 7 8 9 9 9 10 12 9 9 9 9 10 10 11 12 12 12 13 14 14 14 13 13 14 16 14 11 11 11 10 11 11 12 12 12 13
6 6 6 6 6 6 6 7 7 8 8 9 9 10 9 9 9 9 10 10 10 12 12 13 14 15 15 14 13 15 17 17 14 11 12 13 14 11 10 10 11 12 12
6 6 6 7 6 7 7 7 7 8 9 9 9 10 10 10 10 10 11 12 12 10 12 13 14 16 16 15 15 16 18 16 13 12 13 13 12 14 11 9 10 9 10
7 6 6 6 7 7 7 8 8 8 9 9 10 10 10 10 11 11 12 14 12 10 11 12 14 15 16 16 15 14 18 14 11 10 12 13 14 13 11 10 8 7 7
6 7 7 7 7 8 8 8 8 8 9 9 10 10 10 10 11 12 13 14 13 11 10 10 13 15 16 16 14 15 16 11 8 9 11 12 13 13 13 9 7 4 4
7 7 8 7 8 8 8 8 8 8 9 9 9 8 9 9 11 12 13 13 13 14 11 11 14 15 14 13 17 16 10 6 7 9 11 12 17 20 17 12 11 8 4
7 8 8 9 9 9 9 9 8 8 9 8 8 8 8 9 11 12 12 12 12 11 11 12 14 15 15 25 29 15 7 7 8 9 10 12 14 19 23 25 25 23 14
6 7 7 8 8 9 8 9 9 10 9 8 8 8 9 10 11 13 12 11 10 9 10 12 13 13 17 28 27 19 11 10 9 9 9 11 14 17 14 19 23 23 26
5 6 6 7 7 7 7 8 9 10 9 8 8 9 9 10 10 10 10 9 8 8 8 10 12 13 18 28 25 21 12 10 10 11 11 12 13 17 17 15 15 15 16
4 4 5 6 7 7 8 9 9 10 9 9 10 10 10 9 9 9 9 9 8 8 8 8 10 12 16 25 25 21 10 10 11 12 14 14 12 24 25 16 15 15 15
3 4 5 6 7 8 8 8 10 10 10 11 11 11 10 9 9 9 9 8 8 8 10 10 10 11 12 23 25 21 10 10 9 10 12 20 22 26 24 15 14 15 14
4 5 6 6 7 7 7 9 10 10 10 11 11 11 9 10 9 8 8 8 8 9 9 10 9 9 14 20 25 23 9 9 9 8 8 11 25 26 26 21 15 19 15
5 6 6 7 7 7 7 9 9 10 10 11 11 10 10 10 10 8 8 8 8 8 8 8 8 8 10 17 20 25 20 15 8 7 6 10 23 24 25 19 23 25 18
5 5 6 7 7 7 7 8 10 10 11 11 10 10 10 9 8 8 7 7 6 6 7 7 8 7 7 10 21 23 22 21 10 8 16 19 21 19 16 23 25 19 12
4 5 6 7 7 7 7 7 8 9 10 11 10 9 9 9 8 7 6 6 6 6 6 7 8 7 6 5 5 6 8 13 10 9 14 19 20 17 17 17 15 12 12
3 4 5 6 7 8 8 8 8 10 10 10 9 8 9 8 8 8 8 9 5 9 6 4 5 6 5 10 17 11 7 6 9 8 7 7 9 10 10 10 10 10 10
3 4 5 6 7 7 8 7 8 9 10 10 8 7 7 7 7 6 7 15 16 18 17 14 11 8 12 15 16 17 18 19 19 10 6 8 8 9 9 9 9 9 9
Wind_Direction
37 35 34 39 24 15 5 356 359 353 350 351 344 342 340 336 333 343 345 343 346 341 336 343 338 335 331 330 330 331 329 329 329 325 320 297 276 259 257 258 261 258 251
23 21 28 34 21 15 7 355 359 351 351 350 341 339 331 328 332 339 334 339 343 338 339 341 336 331 327 327 328 328 326 327 334 326 321 316 305 338 297 275 252 243 237
16 13 23 24 16 17 11 355 351 349 348 347 341 338 330 330 335 335 331 338 338 333 334 336 334 327 326 322 324 323 327 322 319 319 318 319 327 329 307 318 317 312 266
16 21 22 15 14 19 11 352 344 345 345 346 342 342 341 337 335 332 329 334 332 329 333 335 332 328 325 322 322 324 319 316 312 312 295 287 297 297 310 311 316 325 313
25 29 20 8 15 20 8 350 341 342 343 344 339 338 334 330 327 328 329 330 327 328 333 334 331 326 322 323 322 320 314 310 304 303 303 294 282 270 278 292 301 308 306
28 28 12 5 16 14 1 347 342 342 343 343 338 337 333 332 331 333 331 329 327 329 332 331 328 322 322 324 320 316 312 306 301 298 298 296 285 275 270 275 289 298 304
27 18 7 7 10 0 355 349 347 343 343 341 339 334 332 331 330 332 328 327 329 330 326 329 324 322 324 322 321 319 313 307 301 298 294 290 284 277 269 269 276 285 293
31 20 12 10 2 354 353 349 345 341 341 340 337 330 332 330 326 326 323 325 325 322 322 327 324 325 326 323 320 318 314 311 307 300 296 293 285 276 265 259 262 271 280
31 17 11 7 360 354 353 346 342 339 339 337 334 329 332 327 324 322 321 322 323 323 326 326 329 328 325 321 322 318 314 314 308 300 296 295 290 279 267 255 245 249 262
24 16 11 3 358 353 348 343 339 335 333 335 334 334 327 326 326 325 325 326 324 322 324 329 330 327 324 322 324 319 313 313 307 303 304 302 296 286 270 252 240 236 244
26 17 7 0 353 349 345 339 336 334 334 332 329 326 324 327 329 327 326 324 321 324 328 331 330 328 324 323 323 320 316 313 309 310 312 308 304 295 282 259 240 233 232
31 18 5 354 348 347 343 340 336 337 334 330 328 325 328 329 329 327 328 324 320 324 329 330 329 327 324 320 320 318 318 313 313 319 318 317 314 309 298 280 252 237 230
23 12 360 351 348 344 343 340 340 338 331 331 328 326 328 328 328 327 327 322 319 323 326 327 327 323 319 316 313 311 312 310 309 319 324 325 325 321 312 297 278 255 244
16 5 354 348 346 342 342 337 339 330 330 329 323 323 324 327 326 326 323 320 321 322 321 324 322 317 314 309 306 308 308 307 308 327 333 333 338 336 330 326 321 298 274
9 2 351 344 341 341 336 334 327 324 326 318 316 317 320 321 322 322 319 321 324 323 319 320 318 314 314 312 314 313 316 321 334 345 349 348 360 3 3 8 8 4 353
3 355 347 342 340 334 329 327 322 324 317 311 311 315 319 321 322 321 324 325 322 319 321 320 317 317 322 322 328 346 4 5 5 8 5 359 6 14 11 19 24 25 24
359 350 342 337 329 322 324 326 328 320 315 314 315 319 319 319 321 326 326 322 320 321 321 318 319 320 321 332 345 24 32 20 15 19 20 15 11 24 14 15 22 21 24
357 341 331 322 314 318 326 327 321 317 318 323 326 323 320 316 318 323 323 320 318 318 313 315 322 327 331 342 1 25 24 22 22 24 26 24 16 27 26 17 20 20 19
359 333 323 316 323 328 326 325 322 321 327 333 331 329 324 322 326 327 325 325 322 319 315 319 325 332 334 349 13 30 15 21 23 20 22 25 23 30 31 22 20 21 17
356 337 331 330 328 321 321 326 326 330 335 334 334 330 327 329 328 327 325 323 325 328 329 332 332 333 337 355 16 36 25 24 20 16 12 20 29 29 35 27 20 25 15
359 353 342 331 319 316 329 329 328 335 333 332 329 329 333 332 331 329 327 329 335 338 338 340 339 341 354 359 11 30 37 26 20 17 9 14 26 28 34 34 29 30 26
360 354 340 325 318 327 336 329 330 329 332 332 332 335 338 336 340 334 334 336 341 344 345 346 348 353 356 4 9 18 26 35 20 8 2 17 28 28 29 33 32 31 28
359 348 333 321 324 335 340 331 325 331 336 335 334 336 336 332 334 337 338 338 341 347 355 353 353 357 1 3 20 20 19 22 23 8 18 24 29 27 25 28 30 27 24
356 342 331 327 329 336 336 324 326 337 337 334 332 339 338 337 339 342 342 343 342 355 4 355 350 350 354 352 8 10 12 15 19 15 16 23 24 28 26 27 25 21 25
347 338 330 326 326 328 327 328 343 343 337 331 333 343 343 337 337 343 347 352 352 10 11 344 344 356 359 20 28 26 14 17 34 28 15 16 17 20 20 21 23 22 21
349 341 332 327 322 324 326 337 349 343 338 335 341 346 343 340 340 341 347 359 5 11 13 12 15 6 17 24 22 19 21 30 34 31 19 22 20 18 16 17 18 20 23